Jefferson, NC

3:29 AM EST on December 11, 2019 (GMT -0500)
Ashe County

Weather History for KGEV - October, 2019

Change the Weather History Date:

Monday, October 28, 2019

  Actual Average Record
Temperature  
Mean Temperature 52 °F -  
Max Temperature 64 °F 62 °F 77 °F (1991)
Min Temperature 41 °F 37 °F 19 °F (1976)
Degree Days  
Heating Degree Days 12    
Growing Degree Days 2 (Base 50)    
Moisture  
Dew Point 48 °F    
Average Humidity 84    
Maximum Humidity 100    
Minimum Humidity 56    
Precipitation  
Precipitation 0.00 in - - ()
Sea Level Pressure  
Sea Level Pressure 30.16 in    
Wind  
Wind Speed 1 mph ()    
Max Wind Speed 8 mph    
Max Gust Speed -    
Visibility 9.3 miles    
Events      
Averages and records for this station are not official NWS values.
T = Trace of Precipitation, MM = Missing Value Source: Averaged Metar Reports

Daily Weather History Graph

Daily Weather History Graph

Search for Another Location

Airport or City:

Astronomy

Oct. 28, 2019 Rise Set
Actual Time 7:44 AM EDT 6:33 PM EDT
Civil Twilight 7:18 AM EDT 7:00 PM EDT
Nautical Twilight 6:47 AM EDT 7:30 PM EDT
Astronomical Twilight 6:17 AM EDT 8:00 PM EDT
Moon 8:05 AM EDT (10/28) 7:18 PM EDT (10/28)
Length of Visible Light 11h 41m
Length of Day
10h 48m
New Moon, 0% of the Moon is Illuminated
Oct 28
New Moon
Nov 4
First Quarter
Nov 12
Full
Nov 19
Last Quarter
Nov 26
New

Hourly Weather History & Observations

Time (EDT) Temp. Windchill Dew Point Humidity Pressure Visibility Wind Dir Wind Speed Gust Speed Precip Events Conditions
12:15 AM 51.1 °F - 50.0 °F 96% 30.11 in 10.0 mi Calm Calm - N/A   Clear
12:35 AM 50.5 °F - 49.8 °F 97% 30.11 in 10.0 mi Calm Calm - N/A   Clear
12:55 AM 49.3 °F - 49.3 °F 100% 30.11 in 10.0 mi Calm Calm - N/A   Clear
1:15 AM 48.6 °F - 48.6 °F 100% 30.11 in 10.0 mi Calm Calm - N/A   Clear
1:35 AM 48.9 °F - 48.9 °F 100% 30.11 in 2.0 mi Calm Calm - N/A   Clear
1:55 AM 48.4 °F - 48.4 °F 100% 30.12 in 1.2 mi Calm Calm - N/A   Scattered Clouds
2:15 AM 48.2 °F - 48.2 °F 100% 30.11 in 7.0 mi Calm Calm - N/A   Clear
2:35 AM 47.5 °F - 47.5 °F 100% 30.11 in 10.0 mi Calm Calm - N/A   Clear
2:55 AM 46.9 °F - 46.9 °F 100% 30.11 in 10.0 mi Calm Calm - N/A   Clear
3:15 AM 46.9 °F - 46.9 °F 100% 30.11 in 10.0 mi Calm Calm - N/A   Clear
3:35 AM 47.1 °F - 47.1 °F 100% 30.11 in 10.0 mi Calm Calm - N/A   Clear
3:55 AM 47.5 °F - 47.5 °F 100% 30.11 in 10.0 mi Calm Calm - N/A   Clear
4:15 AM 48.0 °F - 47.7 °F 99% 30.12 in 10.0 mi Calm Calm - N/A   Clear
4:35 AM 45.7 °F - 45.5 °F 99% 30.12 in 1.8 mi Calm Calm - N/A   Mist
4:55 AM 46.0 °F - 46.0 °F 100% 30.12 in 3.0 mi Calm Calm - N/A   Clear
5:15 AM 45.9 °F - 45.7 °F 99% 30.13 in 10.0 mi Calm Calm - N/A   Clear
5:35 AM 43.2 °F - 43.2 °F 100% 30.13 in 10.0 mi Calm Calm - N/A   Clear
5:55 AM 42.1 °F - 42.1 °F 100% 30.13 in 2.5 mi Calm Calm - N/A   Clear
6:15 AM 43.0 °F 41.3 °F 43.0 °F 100% 30.14 in 10.0 mi SW 3.5 mph - N/A   Clear
6:35 AM 43.5 °F 41.9 °F 43.2 °F 99% 30.14 in 10.0 mi WSW 3.5 mph - N/A   Clear
6:55 AM 42.1 °F - 41.9 °F 99% 30.15 in 10.0 mi Calm Calm - N/A   Clear
7:15 AM 43.5 °F - 43.2 °F 99% 30.15 in 10.0 mi Calm Calm - N/A   Clear
7:35 AM 42.8 °F - 42.8 °F 100% 30.16 in 10.0 mi Calm Calm - N/A   Clear
7:55 AM 42.8 °F - 42.6 °F 99% 30.16 in 10.0 mi Calm Calm - N/A   Clear
8:15 AM 41.9 °F - 41.9 °F 100% 30.17 in 10.0 mi Calm Calm - N/A   Clear
8:35 AM 43.7 °F - 43.2 °F 98% 30.18 in 10.0 mi Calm Calm - N/A   Clear
8:55 AM 44.6 °F - 44.1 °F 98% 30.18 in 10.0 mi Calm Calm - N/A   Clear
9:15 AM 45.3 °F - 44.4 °F 97% 30.20 in 10.0 mi Calm Calm - N/A   Clear
9:35 AM 48.0 °F - 46.9 °F 96% 30.20 in 10.0 mi Calm Calm - N/A   Clear
9:55 AM 51.6 °F - 48.2 °F 88% 30.20 in 10.0 mi Calm Calm - N/A   Clear
10:15 AM 54.1 °F - 46.9 °F 77% 30.20 in 10.0 mi Calm Calm - N/A   Clear
10:35 AM 55.0 °F - 46.6 °F 73% 30.20 in 10.0 mi South 4.6 mph - N/A   Clear
10:55 AM 57.0 °F - 46.6 °F 68% 30.20 in 10.0 mi SSE 8.1 mph - N/A   Clear
11:15 AM 59.2 °F - 46.6 °F 63% 30.20 in 10.0 mi SSE 3.5 mph - N/A   Clear
11:35 AM 60.6 °F - 47.3 °F 61% 30.20 in 10.0 mi SE 6.9 mph - N/A   Clear
11:55 AM 61.7 °F - 47.3 °F 59% 30.20 in 10.0 mi SE 4.6 mph - N/A   Clear
12:15 PM 61.2 °F - 45.7 °F 57% 30.20 in 10.0 mi SSE 4.6 mph - N/A   Clear
1:55 PM 63.7 °F - 48.2 °F 57% 30.17 in 10.0 mi ESE 6.9 mph - N/A   Clear
2:15 PM 64.8 °F - 49.1 °F 57% 30.16 in 10.0 mi SSE 4.6 mph - N/A   Clear
2:35 PM 64.2 °F - 48.2 °F 56% 30.16 in 10.0 mi ESE 6.9 mph - N/A   Clear
2:55 PM 64.8 °F - 48.7 °F 56% 30.16 in 10.0 mi ESE 5.8 mph - N/A   Clear
3:15 PM 64.4 °F - 48.9 °F 57% 30.16 in 10.0 mi ESE 6.9 mph - N/A   Clear
3:35 PM 64.2 °F - 49.3 °F 58% 30.16 in 10.0 mi SE 6.9 mph - N/A   Clear
3:55 PM 63.7 °F - 49.6 °F 60% 30.16 in 10.0 mi ESE 5.8 mph - N/A   Clear
4:15 PM 63.5 °F - 50.0 °F 61% 30.17 in 10.0 mi SSE 6.9 mph - N/A   Clear
4:55 PM 62.2 °F - 50.7 °F 66% 30.16 in 10.0 mi SE 4.6 mph - N/A   Clear
5:35 PM 60.8 °F - 50.5 °F 69% 30.17 in 10.0 mi SE 6.9 mph - N/A   Clear
5:55 PM 60.1 °F - 50.5 °F 71% 30.17 in 10.0 mi SE 4.6 mph - N/A   Clear
6:15 PM 59.2 °F - 50.5 °F 73% 30.17 in 10.0 mi SSE 3.5 mph - N/A   Clear
6:35 PM 58.5 °F - 50.9 °F 76% 30.17 in 10.0 mi SSE 3.5 mph - N/A   Clear
6:55 PM 58.1 °F - 50.5 °F 76% 30.18 in 10.0 mi SSE 3.5 mph - N/A   Scattered Clouds
7:15 PM 58.1 °F - 50.7 °F 76% 30.18 in 10.0 mi SSE 3.5 mph - N/A   Overcast
7:35 PM 57.4 °F - 50.7 °F 78% 30.19 in 10.0 mi SSE 3.5 mph - N/A   Scattered Clouds
7:55 PM 56.7 °F - 50.9 °F 81% 30.19 in 10.0 mi Calm Calm - N/A   Mostly Cloudy
8:15 PM 56.3 °F - 50.9 °F 82% 30.19 in 10.0 mi South 3.5 mph - N/A   Overcast
8:35 PM 56.5 °F - 51.1 °F 82% 30.20 in 10.0 mi SSE 3.5 mph - N/A   Overcast
8:55 PM 56.7 °F - 50.9 °F 81% 30.20 in 10.0 mi Calm Calm - N/A   Overcast
9:15 PM 56.3 °F - 51.1 °F 83% 30.20 in 10.0 mi Calm Calm - N/A   Overcast
9:35 PM 55.9 °F - 51.1 °F 84% 30.21 in 10.0 mi Calm Calm - N/A   Overcast
9:55 PM 55.9 °F - 50.9 °F 83% 30.21 in 10.0 mi Calm Calm - N/A   Scattered Clouds
10:15 PM 55.4 °F - 50.5 °F 84% 30.22 in 10.0 mi Calm Calm - N/A   Scattered Clouds
10:35 PM 54.7 °F - 50.5 °F 86% 30.22 in 10.0 mi Calm Calm - N/A   Scattered Clouds
10:55 PM 54.1 °F - 50.2 °F 86% 30.22 in 10.0 mi Calm Calm - N/A   Clear
11:35 PM 54.5 °F - 50.2 °F 85% 30.23 in 10.0 mi Calm Calm - N/A   Overcast
11:55 PM 54.5 °F - 50.2 °F 85% 30.23 in 10.0 mi Calm Calm - N/A   Overcast